This is the latest recevied weather packets stored in our database for station/object KQ4TV-2. If no packets are shown the sender has not sent any weather packets the latest 1 day(s).
| Time | Temp. | Humidity | Pressure | Rain* | Wind** | Luminosity | Snow |
|---|---|---|---|---|---|---|---|
| 1778100479 | 13.89° C | 95% | - | 0 mm | - | - | - |
| 1778086098 | 12.78° C | 97% | - | 0 mm | - | - | - |
| 1778079210 | 12.78° C | 97% | - | 0 mm | - | - | - |
| 1778076430 | 12.78° C | 97% | - | 0 mm | - | - | - |
| 1778076067 | 12.78° C | 97% | - | 0 mm | - | - | - |
| 1778074738 | 12.22° C | 97% | - | 0 mm | - | - | - |
| 1778064771 | 13.33° C | 96% | - | 0 mm | - | - | - |
| 1778057351 | 18.89° C | 95% | - | 0 mm | - | - | - |
| 1778056830 | 19.44° C | 95% | - | 0 mm | - | - | - |
| 1778054261 | 21.67° C | 80% | - | 0 mm | - | - | - |
| 1778053180 | 21.67° C | 75% | - | 0 mm | - | - | - |
| 1778053134 | 21.67° C | 76% | - | 0 mm | - | - | - |
| 1778052121 | 21.67° C | 75% | - | 0 mm | - | - | - |
| 1778052056 | 21.67° C | 75% | - | 0 mm | - | - | - |
| 1778051771 | 21.67° C | 75% | - | 0 mm | - | - | - |
| 1778049712 | 21.67° C | 73% | - | 0 mm | - | - | - |
| 1778049223 | 21.67° C | 73% | - | 0 mm | - | - | - |
| 1778049184 | 21.67° C | 73% | - | 0 mm | - | - | - |
| 1778048421 | 21.67° C | 72% | - | 0 mm | - | - | - |
| 1778048300 | 21.67° C | 72% | - | 0 mm | - | - | - |
| 1778048216 | 21.67° C | 73% | - | 0 mm | - | - | - |
| 1778047716 | 21.67° C | 72% | - | 0 mm | - | - | - |
| 1778047259 | 21.11° C | 72% | - | 0 mm | - | - | - |
| 1778045978 | 21.11° C | 72% | - | 0 mm | - | - | - |
| 1778045814 | 21.11° C | 72% | - | 0 mm | - | - | - |
* Rain since midnight (hover to see other rain measurements)
** Current wind speed in m/s (hover to see current wind gust speed)